QPF
0.09 0.09 0.10 0.10 0.11 0.15 0.16 0.16 0.16 0.17 0.16 0.17 0.15 0.19 0.18 0.13 0.08 0.06 0.08 0.11 0.06 0.04 0.04 0.04 0.05 0.05 0.05 0.04 0.02 0.02 0.03 0.03 0.03 0.02 0.02 0.02 0.02 0.01 0.01 0.01 0.00 0.00 0.00
0.03 0.03 0.04 0.05 0.06 0.07 0.07 0.08 0.08 0.09 0.10 0.12 0.10 0.12 0.12 0.13 0.12 0.09 0.09 0.15 0.09 0.03 0.03 0.03 0.04 0.05 0.06 0.06 0.05 0.03 0.02 0.02 0.02 0.02 0.02 0.02 0.02 0.01 0.01 0.00 0.00 0.00 0.00
0.01 0.01 0.01 0.02 0.02 0.02 0.03 0.03 0.05 0.05 0.06 0.07 0.07 0.08 0.09 0.10 0.09 0.09 0.10 0.13 0.11 0.06 0.04 0.03 0.04 0.05 0.05 0.06 0.06 0.05 0.04 0.03 0.02 0.01 0.02 0.02 0.02 0.02 0.01 0.01 0.00 0.00 0.00
0.00 0.00 0.00 0.00 0.01 0.01 0.01 0.02 0.03 0.03 0.04 0.04 0.06 0.06 0.07 0.06 0.06 0.08 0.09 0.10 0.12 0.10 0.08 0.05 0.05 0.05 0.05 0.05 0.05 0.06 0.06 0.04 0.03 0.02 0.01 0.01 0.02 0.02 0.01 0.01 0.00 0.00 0.00
0.00 0.00 0.00 0.00 0.00 0.01 0.01 0.01 0.01 0.01 0.02 0.02 0.02 0.03 0.04 0.05 0.06 0.06 0.06 0.06 0.09 0.10 0.07 0.07 0.07 0.06 0.05 0.04 0.04 0.05 0.06 0.06 0.04 0.03 0.03 0.02 0.01 0.01 0.01 0.01 0.00 0.00 0.00
0.00 0.00 0.00 0.00 0.00 0.00 0.00 0.00 0.00 0.00 0.01 0.01 0.00 0.01 0.02 0.03 0.04 0.05 0.05 0.06 0.07 0.05 0.05 0.07 0.10 0.05 0.05 0.04 0.04 0.04 0.05 0.07 0.07 0.05 0.03 0.03 0.02 0.01 0.00 0.00 0.00 0.00 0.00
0.00 0.00 0.00 0.00 0.00 0.00 0.00 0.00 0.00 0.00 0.00 0.00 0.00 0.00 0.00 0.01 0.03 0.04 0.05 0.06 0.07 0.09 0.09 0.09 0.10 0.08 0.05 0.04 0.03 0.04 0.05 0.05 0.06 0.06 0.05 0.04 0.03 0.02 0.01 0.00 0.00 0.00 0.00
0.00 0.00 0.00 0.00 0.00 0.00 0.00 0.01 0.01 0.01 0.01 0.01 0.01 0.00 0.00 0.02 0.04 0.05 0.07 0.08 0.09 0.11 0.10 0.10 0.12 0.13 0.10 0.10 0.04 0.03 0.04 0.06 0.07 0.08 0.06 0.04 0.04 0.03 0.02 0.01 0.01 0.00 0.00
0.00 0.00 0.00 0.00 0.00 0.00 0.00 0.01 0.01 0.02 0.02 0.01 0.01 0.01 0.01 0.02 0.03 0.04 0.06 0.09 0.12 0.13 0.13 0.14 0.13 0.14 0.12 0.10 0.08 0.06 0.05 0.06 0.08 0.11 0.11 0.07 0.04 0.03 0.02 0.02 0.01 0.01 0.00
0.00 0.00 0.00 0.00 0.00 0.00 0.00 0.00 0.01 0.01 0.01 0.01 0.01 0.01 0.01 0.01 0.01 0.02 0.03 0.06 0.09 0.10 0.12 0.12 0.11 0.13 0.14 0.14 0.12 0.09 0.08 0.08 0.09 0.13 0.14 0.13 0.09 0.06 0.03 0.03 0.02 0.02 0.01
0.00 0.00 0.00 0.00 0.00 0.00 0.00 0.00 0.00 0.01 0.01 0.01 0.01 0.02 0.01 0.02 0.01 0.01 0.01 0.03 0.04 0.05 0.07 0.08 0.10 0.11 0.14 0.16 0.15 0.12 0.09 0.09 0.10 0.13 0.15 0.16 0.14 0.10 0.06 0.05 0.04 0.04 0.03
0.00 0.00 0.00 0.00 0.00 0.00 0.00 0.00 0.00 0.01 0.01 0.01 0.01 0.01 0.01 0.01 0.01 0.02 0.01 0.01 0.01 0.02 0.02 0.03 0.05 0.07 0.11 0.13 0.12 0.11 0.12 0.11 0.10 0.10 0.13 0.16 0.17 0.15 0.11 0.08 0.07 0.06 0.05
0.00 0.00 0.00 0.00 0.00 0.00 0.00 0.00 0.00 0.00 0.00 0.01 0.01 0.01 0.01 0.01 0.01 0.01 0.01 0.00 0.00 0.00 0.01 0.01 0.03 0.05 0.05 0.09 0.12 0.12 0.11 0.12 0.11 0.10 0.11 0.13 0.14 0.15 0.15 0.12 0.10 0.09 0.08
0.00 0.00 0.00 0.00 0.00 0.00 0.00 0.00 0.00 0.00 0.00 0.01 0.01 0.01 0.00 0.00 0.00 0.01 0.01 0.00 0.00 0.00 0.01 0.02 0.03 0.05 0.07 0.10 0.11 0.10 0.11 0.11 0.10 0.11 0.10 0.09 0.10 0.11 0.12 0.11 0.10 0.08 0.07
0.00 0.00 0.00 0.00 0.00 0.00 0.00 0.00 0.00 0.00 0.00 0.00 0.00 0.01 0.01 0.00 0.00 0.00 0.00 0.00 0.00 0.00 0.00 0.02 0.03 0.04 0.05 0.08 0.08 0.09 0.12 0.15 0.12 0.11 0.10 0.09 0.09 0.09 0.08 0.09 0.07 0.06 0.04
0.00 0.00 0.00 0.00 0.00 0.01 0.01 0.01 0.01 0.01 0.01 0.01 0.01 0.01 0.01 0.00 0.00 0.00 0.00 0.00 0.00 0.00 0.00 0.01 0.02 0.03 0.03 0.04 0.04 0.06 0.11 0.14 0.13 0.11 0.11 0.11 0.10 0.09 0.08 0.08 0.07 0.06 0.04
0.00 0.00 0.01 0.01 0.01 0.01 0.01 0.01 0.01 0.01 0.01 0.01 0.01 0.01 0.01 0.01 0.01 0.00 0.00 0.00 0.01 0.01 0.01 0.00 0.01 0.01 0.03 0.04 0.05 0.06 0.08 0.12 0.14 0.12 0.10 0.09 0.10 0.10 0.09 0.08 0.08 0.07 0.05
0.00 0.00 0.00 0.01 0.01 0.01 0.01 0.01 0.01 0.01 0.01 0.01 0.02 0.02 0.02 0.02 0.02 0.01 0.01 0.01 0.01 0.01 0.01 0.01 0.00 0.00 0.02 0.03 0.04 0.05 0.06 0.07 0.10 0.10 0.09 0.08 0.08 0.08 0.08 0.08 0.08 0.07 0.06
0.00 0.00 0.00 0.01 0.01 0.01 0.01 0.01 0.01 0.01 0.01 0.02 0.02 0.02 0.02 0.03 0.02 0.02 0.02 0.01 0.01 0.01 0.01 0.01 0.00 0.00 0.00 0.01 0.03 0.04 0.05 0.09 0.08 0.08 0.07 0.07 0.06 0.07 0.08 0.07 0.07 0.07 0.06
0.00 0.00 0.00 0.01 0.01 0.01 0.01 0.01 0.01 0.02 0.02 0.02 0.02 0.02 0.02 0.02 0.03 0.04 0.03 0.03 0.02 0.02 0.01 0.01 0.00 0.00 0.00 0.01 0.02 0.03 0.05 0.10 0.11 0.08 0.08 0.07 0.06 0.07 0.08 0.09 0.08 0.08 0.07
0.00 0.00 0.01 0.01 0.01 0.00 0.01 0.01 0.01 0.01 0.01 0.01 0.02 0.02 0.02 0.02 0.02 0.02 0.01 0.01 0.02 0.03 0.02 0.02 0.01 0.01 0.01 0.01 0.02 0.02 0.04 0.08 0.12 0.13 0.12 0.08 0.06 0.07 0.08 0.10 0.11 0.11 0.09
0.00 0.00 0.00 0.00 0.00 0.00 0.00 0.00 0.00 0.00 0.00 0.01 0.01 0.02 0.02 0.01 0.01 0.00 0.00 0.00 0.00 0.01 0.01 0.01 0.01 0.01 0.02 0.02 0.03 0.03 0.03 0.06 0.10 0.15 0.16 0.13 0.12 0.11 0.11 0.12 0.12 0.12 0.12
0.00 0.00 0.00 0.00 0.01 0.01 0.00 0.00 0.00 0.00 0.00 0.00 0.01 0.02 0.01 0.01 0.02 0.02 0.02 0.01 0.01 0.00 0.00 0.00 0.00 0.01 0.01 0.02 0.04 0.04 0.05 0.06 0.09 0.16 0.20 0.15 0.15 0.15 0.16 0.16 0.17 0.16 0.16
0.00 0.01 0.00 0.01 0.01 0.02 0.01 0.00 0.00 0.00 0.00 0.00 0.01 0.02 0.03 0.03 0.04 0.04 0.05 0.05 0.04 0.03 0.02 0.01 0.01 0.00 0.00 0.01 0.03 0.04 0.05 0.05 0.06 0.12 0.21 0.19 0.16 0.14 0.14 0.17 0.18 0.17 0.19
0.00 0.00 0.01 0.01 0.02 0.03 0.02 0.00 0.00 0.00 0.00 0.01 0.01 0.02 0.04 0.05 0.04 0.01 0.02 0.03 0.03 0.03 0.01 0.01 0.00 0.00 0.00 0.00 0.00 0.01 0.02 0.04 0.05 0.08 0.17 0.20 0.17 0.13 0.10 0.11 0.15 0.16 0.18
0.00 0.00 0.01 0.01 0.02 0.03 0.04 0.01 0.00 0.00 0.00 0.01 0.02 0.03 0.02 0.01 0.01 0.00 0.01 0.03 0.03 0.03 0.04 0.04 0.03 0.01 0.00 0.00 0.00 0.00 0.01 0.02 0.05 0.08 0.13 0.17 0.16 0.15 0.12 0.09 0.10 0.12 0.14
MSLP
1016.18 1015.96 1015.60 1015.22 1014.90 1014.72 1014.73 1014.90 1015.20 1015.55 1015.87 1016.09 1016.20 1016.18 1016.07 1015.92 1015.79 1015.73 1015.76 1015.90 1016.12 1016.42 1016.76 1017.12 1017.50 1017.88 1018.27 1018.65 1019.03 1019.40 1019.75 1020.09 1020.42 1020.75 1021.08 1021.44 1021.82 1022.22 1022.63 1023.03 1023.41 1023.74 1024.01
1016.27 1016.02 1015.66 1015.27 1014.95 1014.75 1014.73 1014.87 1015.13 1015.45 1015.75 1015.97 1016.07 1016.05 1015.93 1015.75 1015.58 1015.45 1015.41 1015.47 1015.63 1015.87 1016.19 1016.56 1016.97 1017.40 1017.82 1018.24 1018.65 1019.03 1019.38 1019.71 1020.04 1020.37 1020.71 1021.09 1021.51 1021.95 1022.40 1022.83 1023.23 1023.58 1023.88
1016.37 1016.13 1015.78 1015.41 1015.09 1014.90 1014.85 1014.96 1015.18 1015.45 1015.71 1015.90 1015.98 1015.94 1015.80 1015.59 1015.37 1015.17 1015.05 1015.02 1015.10 1015.29 1015.57 1015.94 1016.36 1016.81 1017.28 1017.73 1018.16 1018.56 1018.92 1019.25 1019.57 1019.90 1020.26 1020.65 1021.09 1021.56 1022.04 1022.51 1022.94 1023.31 1023.64
1016.46 1016.23 1015.92 1015.59 1015.31 1015.13 1015.07 1015.14 1015.30 1015.52 1015.72 1015.86 1015.91 1015.84 1015.68 1015.44 1015.17 1014.91 1014.71 1014.60 1014.60 1014.71 1014.94 1015.28 1015.69 1016.16 1016.64 1017.12 1017.58 1017.99 1018.35 1018.69 1019.01 1019.35 1019.71 1020.12 1020.58 1021.07 1021.58 1022.08 1022.54 1022.95 1023.30
1016.49 1016.30 1016.05 1015.79 1015.56 1015.40 1015.34 1015.38 1015.49 1015.63 1015.77 1015.86 1015.86 1015.77 1015.58 1015.32 1015.02 1014.72 1014.45 1014.26 1014.17 1014.20 1014.36 1014.64 1015.01 1015.46 1015.94 1016.43 1016.89 1017.32 1017.70 1018.04 1018.37 1018.72 1019.09 1019.52 1019.99 1020.50 1021.03 1021.56 1022.05 1022.50 1022.90
1016.45 1016.32 1016.15 1015.96 1015.80 1015.68 1015.63 1015.64 1015.69 1015.77 1015.84 1015.87 1015.84 1015.73 1015.53 1015.27 1014.95 1014.62 1014.31 1014.05 1013.88 1013.82 1013.89 1014.08 1014.39 1014.78 1015.23 1015.70 1016.15 1016.58 1016.97 1017.32 1017.67 1018.02 1018.41 1018.85 1019.34 1019.87 1020.42 1020.97 1021.49 1021.98 1022.42
1016.35 1016.28 1016.19 1016.10 1016.01 1015.95 1015.91 1015.90 1015.91 1015.92 1015.93 1015.91 1015.85 1015.73 1015.55 1015.30 1014.99 1014.65 1014.31 1014.00 1013.75 1013.60 1013.56 1013.65 1013.86 1014.17 1014.55 1014.97 1015.40 1015.81 1016.20 1016.57 1016.92 1017.29 1017.70 1018.15 1018.64 1019.18 1019.75 1020.32 1020.88 1021.41 1021.89
1016.20 1016.20 1016.20 1016.20 1016.19 1016.18 1016.16 1016.14 1016.11 1016.08 1016.04 1015.99 1015.91 1015.80 1015.63 1015.41 1015.14 1014.82 1014.47 1014.12 1013.80 1013.56 1013.42 1013.38 1013.47 1013.67 1013.96 1014.31 1014.68 1015.06 1015.44 1015.80 1016.17 1016.55 1016.97 1017.42 1017.93 1018.47 1019.04 1019.63 1020.21 1020.77 1021.30
1016.04 1016.10 1016.17 1016.25 1016.32 1016.36 1016.37 1016.35 1016.30 1016.24 1016.16 1016.09 1016.01 1015.91 1015.78 1015.61 1015.38 1015.08 1014.74 1014.37 1014.01 1013.69 1013.44 1013.28 1013.24 1013.32 1013.49 1013.74 1014.04 1014.37 1014.72 1015.07 1015.43 1015.82 1016.23 1016.69 1017.19 1017.73 1018.30 1018.88 1019.47 1020.06 1020.62
1015.89 1015.99 1016.13 1016.27 1016.40 1016.48 1016.51 1016.50 1016.44 1016.36 1016.27 1016.19 1016.12 1016.05 1015.96 1015.83 1015.65 1015.40 1015.08 1014.71 1014.31 1013.93 1013.58 1013.32 1013.15 1013.10 1013.15 1013.30 1013.51 1013.77 1014.07 1014.39 1014.73 1015.10 1015.51 1015.95 1016.43 1016.95 1017.51 1018.09 1018.68 1019.27 1019.86
1015.77 1015.90 1016.06 1016.25 1016.41 1016.52 1016.57 1016.56 1016.50 1016.42 1016.33 1016.25 1016.19 1016.15 1016.10 1016.03 1015.90 1015.69 1015.40 1015.04 1014.63 1014.20 1013.79 1013.44 1013.17 1013.00 1012.93 1012.97 1013.08 1013.26 1013.50 1013.77 1014.08 1014.42 1014.80 1015.22 1015.67 1016.16 1016.69 1017.25 1017.82 1018.42 1019.02
1015.66 1015.79 1015.97 1016.16 1016.34 1016.46 1016.52 1016.52 1016.46 1016.38 1016.29 1016.23 1016.19 1016.17 1016.16 1016.13 1016.04 1015.88 1015.63 1015.30 1014.89 1014.45 1014.00 1013.59 1013.24 1012.97 1012.81 1012.73 1012.75 1012.84 1013.00 1013.21 1013.47 1013.77 1014.11 1014.49 1014.91 1015.36 1015.86 1016.38 1016.94 1017.53 1018.14
1015.54 1015.66 1015.82 1016.00 1016.17 1016.28 1016.34 1016.34 1016.29 1016.21 1016.14 1016.09 1016.07 1016.07 1016.09 1016.09 1016.04 1015.92 1015.71 1015.41 1015.03 1014.60 1014.15 1013.71 1013.31 1012.98 1012.73 1012.57 1012.49 1012.50 1012.57 1012.71 1012.91 1013.16 1013.45 1013.78 1014.16 1014.58 1015.04 1015.53 1016.07 1016.64 1017.25
1015.38 1015.47 1015.61 1015.76 1015.90 1015.99 1016.04 1016.03 1015.98 1015.92 1015.86 1015.82 1015.82 1015.84 1015.87 1015.89 1015.87 1015.78 1015.61 1015.35 1015.02 1014.62 1014.19 1013.76 1013.34 1012.98 1012.67 1012.44 1012.28 1012.20 1012.19 1012.26 1012.38 1012.57 1012.82 1013.11 1013.46 1013.84 1014.27 1014.74 1015.25 1015.80 1016.40
1015.17 1015.23 1015.32 1015.44 1015.54 1015.61 1015.63 1015.62 1015.58 1015.52 1015.47 1015.45 1015.45 1015.48 1015.52 1015.55 1015.54 1015.48 1015.34 1015.13 1014.85 1014.51 1014.12 1013.72 1013.32 1012.95 1012.61 1012.32 1012.09 1011.94 1011.85 1011.84 1011.90 1012.03 1012.23 1012.49 1012.81 1013.17 1013.57 1014.02 1014.51 1015.05 1015.62
1014.89 1014.92 1014.99 1015.06 1015.12 1015.16 1015.17 1015.15 1015.11 1015.07 1015.03 1015.01 1015.02 1015.05 1015.08 1015.11 1015.10 1015.05 1014.95 1014.78 1014.55 1014.27 1013.95 1013.60 1013.24 1012.87 1012.52 1012.20 1011.92 1011.70 1011.54 1011.45 1011.46 1011.54 1011.70 1011.93 1012.23 1012.58 1012.97 1013.40 1013.88 1014.39 1014.95
1014.56 1014.58 1014.62 1014.66 1014.69 1014.71 1014.70 1014.68 1014.64 1014.61 1014.58 1014.57 1014.57 1014.59 1014.60 1014.61 1014.59 1014.54 1014.46 1014.33 1014.15 1013.94 1013.69 1013.40 1013.09 1012.75 1012.41 1012.07 1011.76 1011.48 1011.26 1011.12 1011.06 1011.10 1011.23 1011.44 1011.73 1012.07 1012.46 1012.88 1013.34 1013.83 1014.35
1014.21 1014.23 1014.26 1014.28 1014.29 1014.29 1014.27 1014.25 1014.22 1014.19 1014.16 1014.15 1014.14 1014.13 1014.12 1014.10 1014.06 1014.00 1013.92 1013.82 1013.69 1013.54 1013.36 1013.14 1012.89 1012.60 1012.28 1011.94 1011.60 1011.28 1011.02 1010.82 1010.72 1010.73 1010.83 1011.03 1011.30 1011.64 1012.02 1012.43 1012.86 1013.32 1013.80
1013.86 1013.89 1013.92 1013.93 1013.94 1013.92 1013.90 1013.88 1013.85 1013.82 1013.80 1013.77 1013.74 1013.70 1013.65 1013.59 1013.52 1013.45 1013.37 1013.28 1013.20 1013.10 1012.98 1012.84 1012.65 1012.41 1012.12 1011.79 1011.45 1011.11 1010.82 1010.59 1010.45 1010.42 1010.50 1010.68 1010.94 1011.26 1011.63 1012.02 1012.42 1012.83 1013.25
1013.53 1013.57 1013.60 1013.62 1013.62 1013.60 1013.58 1013.55 1013.52 1013.49 1013.46 1013.41 1013.36 1013.28 1013.19 1013.09 1012.99 1012.88 1012.79 1012.72 1012.67 1012.62 1012.56 1012.48 1012.36 1012.18 1011.94 1011.64 1011.31 1010.97 1010.66 1010.41 1010.24 1010.19 1010.24 1010.40 1010.64 1010.94 1011.27 1011.62 1011.97 1012.32 1012.68
1013.21 1013.26 1013.30 1013.31 1013.31 1013.29 1013.26 1013.23 1013.20 1013.16 1013.11 1013.05 1012.96 1012.85 1012.71 1012.57 1012.43 1012.30 1012.20 1012.14 1012.10 1012.10 1012.10 1012.08 1012.02 1011.91 1011.72 1011.47 1011.16 1010.84 1010.53 1010.27 1010.09 1010.02 1010.05 1010.18 1010.38 1010.65 1010.94 1011.23 1011.52 1011.79 1012.07
1012.88 1012.94 1012.96 1012.97 1012.96 1012.94 1012.91 1012.87 1012.83 1012.78 1012.71 1012.62 1012.50 1012.36 1012.19 1012.01 1011.84 1011.69 1011.58 1011.52 1011.51 1011.54 1011.59 1011.63 1011.63 1011.58 1011.45 1011.25 1011.00 1010.71 1010.42 1010.17 1009.99 1009.90 1009.91 1010.00 1010.17 1010.39 1010.63 1010.86 1011.07 1011.26 1011.45
1012.53 1012.56 1012.57 1012.57 1012.54 1012.51 1012.46 1012.42 1012.37 1012.30 1012.22 1012.11 1011.97 1011.80 1011.61 1011.40 1011.21 1011.05 1010.94 1010.88 1010.89 1010.95 1011.04 1011.13 1011.19 1011.19 1011.12 1010.98 1010.78 1010.53 1010.28 1010.05 1009.88 1009.79 1009.79 1009.86 1010.00 1010.17 1010.34 1010.51 1010.64 1010.75 1010.85
1012.10 1012.11 1012.09 1012.06 1012.02 1011.97 1011.92 1011.86 1011.80 1011.73 1011.64 1011.52 1011.37 1011.19 1010.98 1010.77 1010.57 1010.40 1010.29 1010.24 1010.26 1010.34 1010.45 1010.58 1010.68 1010.73 1010.72 1010.63 1010.48 1010.29 1010.08 1009.89 1009.74 1009.66 1009.66 1009.72 1009.83 1009.96 1010.09 1010.19 1010.27 1010.31 1010.34
1011.58 1011.55 1011.51 1011.46 1011.40 1011.34 1011.28 1011.23 1011.16 1011.09 1011.00 1010.88 1010.73 1010.55 1010.35 1010.14 1009.94 1009.78 1009.67 1009.63 1009.66 1009.74 1009.86 1010.00 1010.13 1010.21 1010.23 1010.19 1010.09 1009.94 1009.78 1009.63 1009.52 1009.46 1009.47 1009.53 1009.62 1009.74 1009.84 1009.91 1009.95 1009.94 1009.92
1010.96 1010.90 1010.83 1010.77 1010.71 1010.65 1010.60 1010.55 1010.50 1010.44 1010.36 1010.25 1010.11 1009.95 1009.76 1009.56 1009.37 1009.22 1009.11 1009.07 1009.08 1009.16 1009.28 1009.41 1009.53 1009.62 1009.66 1009.64 1009.57 1009.47 1009.35 1009.24 1009.16 1009.14 1009.17 1009.24 1009.35 1009.47 1009.57 1009.64 1009.66 1009.65 1009.61
Thickness
5738 5737 5736 5736 5736 5736 5735 5733 5733 5733 5732 5732 5733 5734 5733 5733 5735 5735 5736 5735 5734 5733 5731 5730 5729 5727 5727 5727 5727 5727 5727 5726 5726 5726 5725 5724 5723 5723 5722 5721 5721 5720 5719
5731 5731 5731 5732 5732 5731 5730 5729 5729 5728 5728 5729 5730 5731 5731 5732 5733 5733 5733 5733 5732 5731 5730 5729 5728 5727 5726 5726 5726 5726 5727 5726 5726 5726 5725 5724 5724 5723 5722 5721 5721 5720 5719
5725 5725 5727 5728 5727 5727 5726 5725 5725 5725 5725 5726 5726 5727 5728 5729 5730 5730 5730 5731 5730 5729 5729 5728 5727 5726 5725 5725 5726 5726 5726 5726 5726 5726 5725 5725 5724 5723 5723 5722 5721 5720 5719
5720 5719 5721 5722 5721 5721 5721 5721 5720 5719 5718 5718 5719 5721 5724 5725 5726 5728 5728 5728 5728 5728 5727 5727 5726 5725 5725 5724 5725 5725 5725 5725 5726 5725 5725 5725 5725 5724 5723 5722 5721 5721 5719
5715 5714 5715 5715 5715 5715 5716 5715 5713 5712 5710 5711 5713 5717 5720 5721 5723 5725 5726 5726 5726 5726 5726 5725 5725 5724 5724 5724 5724 5725 5725 5725 5725 5725 5725 5725 5724 5724 5724 5723 5722 5721 5720
5710 5709 5710 5709 5709 5709 5709 5707 5706 5706 5706 5706 5709 5712 5715 5718 5720 5722 5723 5724 5725 5724 5724 5724 5724 5723 5723 5723 5724 5724 5724 5724 5724 5724 5725 5724 5724 5724 5724 5723 5723 5722 5721
5707 5705 5705 5703 5704 5703 5702 5701 5700 5699 5699 5702 5702 5703 5709 5716 5718 5720 5720 5721 5721 5721 5722 5722 5722 5721 5722 5722 5722 5723 5723 5724 5724 5724 5724 5725 5724 5724 5724 5724 5723 5722 5721
5704 5703 5700 5699 5698 5697 5697 5696 5694 5692 5693 5696 5694 5692 5693 5701 5709 5716 5715 5715 5716 5716 5717 5719 5719 5718 5719 5720 5721 5721 5722 5723 5724 5724 5724 5724 5725 5724 5724 5724 5723 5723 5722
5702 5700 5697 5695 5693 5692 5691 5690 5689 5687 5685 5688 5690 5687 5683 5684 5690 5702 5706 5708 5709 5710 5711 5712 5713 5714 5715 5716 5718 5719 5720 5722 5722 5723 5724 5724 5724 5724 5724 5724 5723 5723 5722
5701 5698 5695 5692 5689 5688 5687 5686 5685 5682 5681 5680 5683 5685 5685 5683 5678 5681 5691 5698 5701 5703 5704 5706 5708 5709 5710 5712 5714 5716 5718 5719 5720 5721 5722 5723 5723 5723 5724 5724 5723 5722 5722
5701 5698 5694 5690 5687 5685 5684 5682 5680 5679 5677 5675 5675 5676 5677 5678 5677 5673 5674 5682 5689 5694 5698 5700 5702 5703 5704 5706 5709 5712 5714 5715 5717 5719 5720 5721 5722 5722 5722 5723 5723 5722 5722
5700 5698 5693 5689 5685 5682 5680 5677 5676 5674 5673 5671 5670 5669 5668 5668 5668 5668 5668 5671 5676 5683 5689 5693 5695 5697 5699 5701 5703 5705 5708 5710 5712 5714 5717 5718 5719 5720 5721 5721 5722 5722 5722
5696 5694 5690 5685 5681 5678 5676 5674 5671 5670 5668 5666 5664 5663 5663 5663 5663 5663 5662 5663 5666 5672 5678 5683 5687 5690 5692 5694 5696 5698 5701 5703 5706 5709 5712 5714 5715 5717 5718 5720 5721 5721 5721
5692 5690 5686 5682 5679 5675 5673 5670 5667 5665 5665 5662 5660 5658 5656 5656 5656 5656 5655 5654 5654 5658 5664 5670 5678 5682 5684 5686 5688 5691 5694 5697 5701 5704 5708 5710 5712 5714 5716 5717 5718 5719 5720
5690 5687 5683 5679 5676 5672 5669 5666 5662 5660 5658 5656 5654 5652 5650 5649 5649 5649 5649 5648 5645 5643 5649 5657 5663 5671 5675 5677 5680 5683 5686 5690 5694 5698 5701 5705 5708 5710 5712 5714 5715 5716 5717
5685 5682 5679 5676 5672 5669 5666 5662 5658 5655 5652 5649 5647 5644 5642 5641 5640 5640 5639 5639 5639 5638 5639 5646 5651 5658 5663 5668 5670 5674 5678 5682 5687 5691 5695 5699 5702 5705 5708 5710 5712 5713 5714
5683 5679 5676 5672 5668 5665 5661 5657 5652 5649 5645 5642 5639 5637 5634 5632 5630 5629 5629 5629 5629 5630 5630 5636 5641 5647 5651 5655 5660 5664 5669 5674 5679 5684 5689 5693 5696 5700 5702 5705 5707 5709 5711
5682 5678 5674 5669 5665 5661 5657 5652 5646 5643 5638 5634 5631 5628 5625 5623 5621 5619 5618 5617 5618 5620 5620 5622 5628 5632 5638 5644 5649 5654 5661 5667 5672 5678 5682 5686 5690 5694 5697 5700 5702 5705 5708
5678 5674 5670 5665 5660 5656 5651 5646 5641 5636 5631 5626 5622 5619 5616 5613 5611 5609 5608 5607 5608 5610 5612 5614 5618 5623 5628 5634 5639 5645 5651 5658 5664 5670 5675 5679 5683 5687 5690 5694 5698 5701 5704
5675 5670 5666 5661 5656 5651 5646 5641 5635 5629 5624 5619 5614 5610 5607 5605 5602 5600 5599 5598 5598 5599 5600 5602 5606 5611 5617 5624 5628 5633 5639 5647 5654 5662 5667 5672 5676 5680 5684 5689 5693 5696 5700
5672 5667 5661 5656 5651 5645 5641 5636 5629 5623 5617 5611 5606 5603 5600 5598 5596 5594 5593 5592 5590 5589 5590 5592 5596 5600 5606 5611 5616 5623 5629 5637 5645 5652 5658 5664 5668 5672 5676 5681 5686 5691 5695
5668 5662 5656 5650 5645 5640 5634 5626 5619 5613 5607 5602 5598 5595 5593 5591 5591 5589 5588 5586 5584 5581 5581 5582 5585 5589 5594 5599 5605 5611 5617 5623 5631 5642 5647 5653 5660 5665 5670 5675 5681 5685 5690
5663 5657 5651 5645 5639 5633 5626 5618 5611 5605 5600 5595 5591 5588 5586 5587 5586 5585 5583 5581 5579 5577 5575 5574 5576 5579 5583 5588 5593 5598 5603 5610 5619 5630 5635 5642 5651 5657 5663 5668 5673 5679 5684
5657 5651 5646 5640 5634 5628 5621 5613 5605 5599 5594 5590 5586 5583 5581 5580 5579 5578 5576 5576 5574 5574 5573 5571 5572 5574 5577 5580 5583 5588 5593 5601 5612 5621 5628 5633 5642 5648 5653 5659 5664 5670 5676
5651 5646 5640 5635 5629 5623 5616 5608 5599 5594 5590 5587 5584 5582 5579 5577 5575 5573 5570 5569 5568 5568 5569 5570 5571 5572 5573 5575 5576 5578 5584 5590 5600 5611 5621 5626 5634 5639 5644 5650 5655 5662 5668
5645 5640 5636 5630 5624 5618 5612 5603 5594 5590 5586 5584 5581 5579 5577 5575 5572 5568 5565 5563 5562 5562 5562 5564 5565 5566 5568 5570 5571 5573 5576 5581 5590 5600 5612 5618 5625 5629 5634 5641 5647 5652 5659